Wind_Speed
42 42 42 42 43 43 43 43 44 44 45 46 47 47 47 47 47 47 46 46 46 46 48 48 48 47 48 50 51 52 53 53 53 54 54 54 54 55 56 57 58 58 57
42 42 42 42 43 43 44 44 44 44 44 45 46 47 47 47 47 47 47 47 47 48 48 50 50 49 49 50 51 53 54 54 55 55 55 55 55 56 56 57 58 58 58
42 41 42 42 43 43 44 44 43 44 44 45 46 46 47 47 48 47 48 48 48 49 49 50 50 50 50 51 52 53 54 55 56 56 56 56 56 56 57 57 58 58 57
41 41 42 42 43 43 43 43 43 43 44 43 44 45 46 47 48 48 48 48 49 49 50 50 51 51 52 52 52 53 54 54 55 56 56 56 56 57 57 57 56 57 57
41 42 42 42 43 43 43 43 44 44 43 43 44 45 46 47 47 47 48 48 48 49 50 51 52 52 52 52 52 52 53 54 54 55 55 56 56 56 56 56 56 56 56
42 42 42 42 42 43 43 44 44 43 43 44 44 45 46 46 46 46 47 47 48 48 49 50 51 52 53 53 53 53 53 53 53 54 54 54 54 55 55 55 56 56 56
41 41 42 42 42 42 43 43 44 43 43 43 43 44 45 45 45 45 46 46 47 48 49 50 51 52 53 54 54 54 53 52 52 53 53 53 53 53 54 55 56 56 55
41 40 41 41 42 42 42 43 43 43 43 43 44 44 44 44 44 45 46 46 47 48 49 50 51 52 53 53 53 53 52 51 51 51 52 51 51 51 52 53 53 54 54
40 41 41 41 42 42 43 43 43 43 44 44 44 44 44 44 44 44 45 46 47 48 50 50 51 51 50 50 50 50 50 49 49 50 49 49 49 49 49 50 50 51 52
40 40 40 41 42 42 42 42 43 42 42 42 42 42 43 43 43 43 45 46 47 48 48 49 49 48 48 48 48 47 47 46 46 47 47 47 47 47 47 48 49 49 49
39 39 39 39 39 40 40 41 41 41 41 41 41 41 41 41 42 43 44 45 45 46 46 46 47 46 46 46 46 46 45 46 46 46 46 46 46 47 47 48 48 49 48
38 38 38 38 38 38 39 40 40 40 40 40 40 40 40 41 42 43 44 45 44 44 45 45 44 44 45 45 45 45 45 45 45 45 45 45 45 46 47 47 48 48 48
37 37 37 38 38 38 38 38 38 39 39 39 39 40 41 41 42 42 43 43 43 43 43 43 43 43 44 44 43 43 43 43 43 44 44 44 44 45 46 46 46 46 47
35 35 36 37 37 37 37 37 38 38 38 39 40 40 40 41 41 41 41 41 41 42 41 42 42 43 43 43 42 41 41 41 42 42 43 44 44 44 45 45 45 46 46
35 36 36 36 36 37 37 37 38 37 38 39 39 39 39 39 39 40 39 40 40 41 40 40 40 41 41 41 41 40 40 40 40 40 41 42 43 44 44 44 44 44 45
35 35 35 35 36 36 37 37 38 38 38 38 38 37 37 38 38 39 39 39 39 39 39 39 39 39 40 40 40 39 39 39 39 39 40 41 41 42 42 42 42 42 42
34 35 35 35 36 36 37 36 37 37 37 37 37 36 37 37 37 38 38 38 38 38 38 39 39 40 40 39 39 38 38 38 39 39 39 39 40 39 40 40 41 40 40
33 34 34 35 35 35 35 36 36 36 36 36 36 36 36 36 37 37 37 37 37 37 38 38 39 39 39 38 37 37 38 38 38 38 39 39 39 38 39 39 39 39 39
32 33 33 34 34 34 34 34 35 35 35 36 36 36 36 36 36 36 36 36 37 37 36 36 37 36 36 36 37 37 38 38 38 38 38 38 38 38 38 38 38 38 38
32 33 33 33 33 33 33 33 33 33 34 35 35 35 35 35 35 35 35 35 35 35 35 35 35 35 35 36 36 37 37 37 37 37 37 37 37 37 37 38 38 38 37
32 32 33 33 33 32 32 31 31 32 32 32 33 33 33 32 33 33 33 33 33 33 33 33 33 33 34 34 35 35 35 35 35 35 35 35 36 36 37 36 36 35 34
31 31 31 31 31 32 32 32 31 31 31 32 32 32 32 32 32 32 32 32 32 32 32 32 32 32 32 33 33 33 33 33 34 34 35 34 35 34 34 34 33 32 32
31 31 31 31 31 31 31 31 31 31 31 31 31 31 31 31 31 31 30 30 30 30 30 30 30 31 31 31 31 31 32 32 33 33 33 33 33 32 32 32 31 31 31
30 30 30 31 31 30 30 30 30 30 30 30 30 31 31 30 30 30 30 29 29 29 30 30 30 30 30 30 30 30 31 31 31 31 31 31 31 31 30 30 30 29 28
29 29 29 29 30 30 30 30 30 30 30 30 31 31 31 30 30 30 30 30 29 29 29 29 29 29 29 29 29 29 29 29 30 30 29 29 29 29 28 28 28 27 27
28 28 28 29 29 30 30 30 30 30 30 30 30 31 31 31 31 31 31 31 30 29 29 29 28 28 28 28 28 28 28 28 28 28 28 28 27 27 27 27 26 26 26
Wind_Direction
266 266 266 265 265 265 265 266 266 266 265 264 263 263 264 264 264 265 265 266 265 265 266 265 265 266 268 268 268 268 269 269 269 270 271 270 270 270 270 271 272 272 271
266 266 265 264 265 265 265 266 266 266 265 264 264 264 264 264 264 265 266 266 266 266 266 267 266 267 269 270 270 269 269 270 270 271 271 271 271 270 271 271 271 271 271
266 266 265 264 264 264 265 266 266 266 266 265 265 264 264 264 265 266 266 266 266 266 267 268 268 268 270 271 271 270 270 271 272 272 271 271 271 271 271 270 270 270 270
265 265 265 265 265 265 266 266 266 266 266 265 265 265 264 264 265 266 266 266 267 267 267 268 269 269 270 272 272 271 271 271 272 272 272 272 271 271 270 270 269 269 270
265 265 264 264 265 265 265 265 265 266 267 267 267 266 266 266 266 267 267 267 267 268 268 269 270 271 271 272 273 272 272 272 273 273 273 273 272 271 270 269 269 269 269
265 265 265 264 264 265 265 265 265 266 267 267 268 268 268 267 267 268 268 268 268 269 269 270 270 271 272 272 273 273 273 274 274 274 274 273 273 272 271 270 269 269 269
265 265 265 264 264 265 265 265 266 266 267 267 269 269 269 269 268 269 269 269 269 270 271 271 272 272 273 273 274 274 274 275 275 274 274 273 273 272 272 271 270 270 270
265 264 265 265 264 265 265 266 266 266 267 268 269 269 270 270 270 269 270 270 270 271 272 273 274 274 275 275 275 274 273 274 274 274 273 273 273 273 273 272 272 271 270
266 265 265 265 265 265 265 265 266 267 268 269 270 270 271 271 270 271 270 270 271 273 273 274 275 275 275 275 275 274 274 274 274 274 274 274 273 273 273 273 272 272 272
267 267 267 266 267 267 267 266 267 267 269 270 270 271 272 272 271 272 273 273 273 274 274 274 275 275 275 275 275 275 274 273 273 274 274 273 272 273 273 274 274 273 272
268 268 268 267 267 267 268 267 268 268 269 270 271 272 273 272 272 273 274 274 275 274 274 274 274 274 275 275 275 274 274 273 274 274 274 273 272 273 274 274 275 275 274
269 268 268 269 269 268 268 268 269 269 270 271 272 274 274 275 275 275 275 275 275 275 275 274 274 274 276 276 276 275 274 274 274 274 273 273 273 273 274 274 275 276 276
269 268 269 270 269 269 270 269 270 271 272 272 274 275 275 275 277 277 278 277 277 276 274 274 274 275 276 277 276 275 275 275 274 274 274 274 274 274 274 274 275 275 276
270 270 269 270 270 270 270 271 272 272 273 274 275 275 275 276 277 278 278 278 277 276 275 274 275 276 277 277 276 275 275 275 275 274 274 275 275 276 276 275 275 275 275
271 271 271 271 271 271 272 272 273 273 274 275 275 275 276 276 277 277 277 277 277 276 275 275 276 277 277 277 275 274 275 275 275 275 275 276 277 277 277 277 277 276 276
270 270 271 271 272 272 273 273 274 275 275 276 276 276 276 277 277 278 278 278 278 278 277 277 277 277 277 275 275 275 274 274 275 275 276 277 278 278 278 278 279 278 277
271 272 272 273 273 273 273 273 274 275 276 277 277 277 277 278 278 279 279 279 279 279 278 277 277 277 276 275 274 274 274 274 275 276 277 277 278 279 279 280 280 279 278
273 274 274 274 274 273 273 273 274 274 275 276 277 277 278 279 279 280 281 281 281 280 279 279 278 277 275 274 273 274 274 275 276 277 277 277 277 278 279 281 281 280 279
275 275 274 274 274 274 274 274 274 275 275 275 276 277 278 279 280 281 282 282 282 281 280 280 279 277 275 274 274 275 275 275 276 277 277 278 278 279 280 281 281 281 281
276 275 275 275 275 275 274 274 275 275 275 276 276 278 279 280 280 281 282 283 282 282 281 280 279 277 276 276 276 276 276 276 276 278 278 278 279 280 281 282 282 282 281
276 275 274 275 275 274 274 274 275 275 276 276 277 278 278 279 280 280 281 282 283 282 281 280 279 278 278 277 277 276 276 277 278 279 279 279 280 281 281 281 281 280 280
277 275 275 275 275 274 274 275 276 276 276 276 276 277 278 279 280 281 281 282 283 282 281 281 280 279 279 279 279 278 278 278 279 280 279 279 280 281 281 280 280 279 279
277 276 275 275 275 275 275 276 276 276 277 277 277 277 278 279 280 281 281 283 283 283 282 282 281 281 281 281 281 281 280 280 280 280 279 279 280 281 281 281 280 279 279
277 277 275 275 274 274 275 275 275 276 277 278 278 278 278 279 279 280 282 283 284 284 283 282 282 282 282 282 282 282 282 282 281 281 279 279 280 280 280 279 278 278 278
280 279 277 276 275 275 275 275 276 277 279 280 279 278 277 278 279 279 281 282 283 283 282 282 281 282 283 283 283 283 283 282 282 280 279 278 278 278 279 278 277 277 278
284 282 280 279 277 276 276 276 277 278 279 280 281 280 278 278 279 279 280 282 282 282 282 282 282 282 283 284 284 284 283 283 282 279 279 279 278 278 278 277 276 276 277
Height
5590 5590 5590 5591 5591 5592 5592 5593 5593 5593 5594 5595 5596 5597 5598 5599 5600 5601 5602 5603 5603 5604 5605 5606 5607 5608 5608 5609 5610 5610 5612 5613 5614 5616 5616 5617 5616 5617 5617 5617 5618 5618 5619
5578 5578 5579 5579 5579 5580 5580 5581 5581 5582 5582 5583 5584 5585 5586 5587 5588 5588 5589 5590 5591 5592 5592 5593 5593 5594 5594 5595 5595 5596 5596 5597 5598 5600 5600 5600 5600 5600 5600 5601 5601 5601 5602
5566 5566 5567 5567 5568 5568 5569 5569 5569 5570 5570 5571 5572 5572 5573 5574 5575 5576 5576 5577 5578 5578 5579 5579 5580 5580 5580 5580 5580 5581 5581 5581 5582 5583 5583 5584 5584 5583 5583 5584 5584 5584 5584
5554 5555 5555 5555 5556 5556 5557 5557 5557 5558 5558 5559 5559 5560 5560 5561 5562 5563 5563 5564 5564 5565 5565 5565 5566 5566 5566 5566 5565 5565 5565 5566 5566 5566 5567 5567 5567 5566 5566 5567 5567 5567 5567
5543 5543 5543 5544 5544 5544 5545 5545 5545 5546 5546 5547 5547 5547 5548 5548 5549 5549 5550 5550 5551 5551 5551 5551 5551 5551 5551 5551 5550 5550 5550 5550 5549 5549 5550 5550 5550 5549 5549 5549 5550 5551 5551
5531 5531 5531 5532 5532 5532 5533 5533 5534 5534 5534 5534 5534 5535 5535 5535 5535 5536 5536 5537 5537 5537 5537 5537 5537 5537 5536 5536 5535 5535 5534 5533 5533 5533 5533 5533 5533 5532 5532 5532 5533 5534 5536
5519 5519 5520 5520 5520 5520 5521 5521 5522 5522 5522 5522 5522 5522 5522 5522 5522 5522 5522 5523 5523 5523 5523 5523 5523 5522 5521 5521 5520 5519 5518 5517 5517 5517 5516 5516 5516 5516 5516 5516 5516 5516 5518
5507 5507 5507 5508 5508 5509 5509 5510 5510 5510 5510 5510 5510 5510 5510 5510 5509 5509 5509 5509 5510 5510 5510 5509 5508 5508 5506 5506 5505 5504 5503 5503 5502 5501 5501 5501 5500 5499 5500 5500 5500 5500 5501
5495 5496 5496 5496 5497 5497 5498 5498 5498 5498 5498 5498 5498 5498 5497 5497 5497 5496 5496 5496 5496 5496 5495 5495 5494 5493 5492 5490 5490 5489 5489 5488 5487 5486 5486 5485 5485 5484 5483 5484 5484 5484 5485
5484 5484 5484 5484 5485 5485 5486 5486 5486 5486 5486 5486 5485 5485 5485 5484 5484 5483 5483 5483 5482 5482 5481 5480 5479 5478 5477 5476 5475 5474 5474 5474 5473 5472 5471 5470 5470 5469 5469 5468 5468 5468 5468
5472 5472 5473 5473 5473 5473 5474 5474 5474 5474 5474 5474 5474 5473 5473 5472 5471 5470 5469 5469 5468 5467 5467 5466 5465 5464 5463 5462 5461 5460 5460 5459 5459 5458 5458 5457 5456 5455 5455 5454 5453 5452 5453
5462 5461 5461 5461 5462 5462 5462 5462 5462 5463 5463 5463 5462 5461 5460 5459 5458 5457 5456 5455 5454 5454 5453 5453 5451 5450 5449 5448 5447 5446 5445 5445 5444 5444 5444 5443 5443 5442 5441 5440 5439 5438 5437
5451 5451 5451 5451 5450 5450 5451 5451 5451 5451 5451 5451 5450 5449 5448 5447 5446 5445 5443 5442 5441 5440 5439 5439 5438 5437 5436 5434 5434 5432 5431 5431 5431 5430 5430 5430 5429 5428 5427 5426 5425 5424 5423
5440 5440 5440 5440 5440 5439 5439 5439 5440 5439 5439 5439 5438 5437 5436 5435 5434 5432 5431 5429 5428 5427 5426 5425 5424 5423 5422 5421 5420 5419 5418 5418 5417 5417 5417 5416 5415 5414 5413 5412 5411 5410 5409
5430 5429 5429 5429 5429 5428 5428 5428 5428 5427 5427 5427 5426 5425 5424 5423 5421 5419 5418 5417 5415 5414 5413 5412 5411 5410 5409 5408 5407 5406 5406 5405 5405 5404 5404 5403 5402 5401 5399 5398 5397 5396 5395
5419 5419 5418 5418 5418 5417 5417 5417 5416 5416 5415 5414 5413 5413 5412 5410 5408 5407 5405 5404 5402 5401 5401 5400 5399 5398 5397 5396 5395 5394 5394 5393 5393 5392 5391 5390 5389 5388 5387 5385 5384 5383 5382
5408 5408 5408 5407 5406 5406 5406 5405 5405 5405 5403 5403 5402 5401 5400 5398 5397 5395 5393 5392 5391 5389 5389 5388 5387 5386 5385 5384 5383 5383 5382 5382 5381 5380 5379 5378 5377 5375 5374 5373 5371 5370 5369
5398 5397 5397 5396 5395 5395 5394 5394 5394 5393 5392 5391 5390 5389 5388 5387 5385 5383 5382 5381 5380 5378 5377 5376 5375 5374 5373 5372 5372 5371 5370 5370 5369 5368 5367 5366 5365 5364 5363 5361 5360 5358 5357
5387 5387 5386 5385 5385 5384 5383 5383 5382 5382 5381 5380 5379 5378 5377 5375 5374 5373 5371 5370 5369 5367 5366 5364 5363 5362 5361 5361 5360 5359 5359 5358 5358 5357 5356 5355 5354 5352 5351 5350 5348 5347 5345
5377 5376 5375 5374 5374 5373 5372 5372 5371 5371 5370 5369 5368 5367 5366 5365 5364 5362 5361 5359 5357 5356 5355 5353 5352 5351 5350 5349 5349 5348 5347 5347 5346 5345 5344 5343 5342 5341 5340 5338 5337 5335 5334
5366 5365 5364 5364 5363 5362 5362 5361 5361 5360 5359 5358 5358 5357 5356 5355 5353 5352 5350 5349 5347 5346 5344 5343 5342 5341 5340 5339 5338 5337 5336 5336 5335 5334 5333 5332 5331 5330 5328 5327 5326 5324 5323
5356 5355 5354 5353 5352 5352 5351 5351 5350 5350 5349 5348 5347 5346 5345 5344 5343 5342 5340 5338 5337 5336 5334 5333 5332 5331 5330 5328 5327 5326 5325 5325 5324 5323 5322 5321 5320 5319 5317 5316 5315 5314 5313
5345 5344 5344 5343 5342 5342 5341 5341 5340 5339 5338 5337 5337 5336 5335 5334 5333 5331 5330 5329 5327 5326 5325 5323 5322 5321 5320 5318 5317 5316 5315 5314 5313 5312 5311 5310 5309 5308 5307 5306 5305 5304 5303
5335 5334 5333 5332 5332 5331 5331 5330 5330 5329 5328 5327 5326 5325 5324 5323 5323 5322 5320 5319 5318 5316 5315 5314 5313 5311 5310 5309 5307 5306 5305 5304 5303 5302 5301 5300 5299 5298 5297 5297 5296 5295 5294
5325 5324 5323 5322 5322 5321 5321 5320 5319 5319 5318 5317 5316 5315 5314 5313 5312 5312 5311 5309 5308 5307 5306 5304 5303 5302 5301 5299 5298 5296 5295 5294 5293 5292 5291 5290 5290 5289 5288 5287 5286 5286 5285
5316 5315 5314 5313 5312 5311 5311 5310 5309 5309 5308 5307 5305 5304 5304 5303 5302 5301 5300 5299 5298 5297 5296 5295 5293 5292 5291 5289 5288 5287 5285 5284 5283 5282 5282 5281 5281 5280 5279 5278 5278 5277 5276